Julián Suárez

Olheiro-Chefe - Maipú
6 Ago 2028
Domingo
Processo

Personalidade

Adaptabilidade (1) Ambição (2) Controvérsia (5) Lealdade (11) Pressão (5) Profissionalismo (8) Espírito Esportivo (11) Temperamento (2)

Perfil

Estilo de Treinamento Democrático
Licença Continental A
Determinação 3
Gestão de Pessoas 7
Motivação 6
Disciplina 6
Satisfação no Trabalho
100%
Fadiga
0%
Função Olheiro-Chefe
Salário 17.6K p/s
Contrato 14.03.2029

Desempenho

Comportamento Bom
Eficácia do Treinamento
21%
Desenvolvimento do Jogador
10%
Prevenção de Lesões
35%
Implementação Tática
20%

Eventos Recentes

Participou de uma reunião de recrutamento 7d atrás
Participou de uma reunião de recrutamento 14d atrás
Participou de uma reunião de recrutamento 21d atrás
Participou de uma reunião de recrutamento 28d atrás
Participou de uma reunião de recrutamento 35d atrás
Participou de uma reunião de recrutamento 42d atrás
Participou de uma reunião de recrutamento 49d atrás
Participou de uma reunião de recrutamento 56d atrás

Monitorando agora

123
Jogador Clube Status Habilidade Confiança Observado Última observação Último voto
Franco Malagueño Colegiales Ativo 92 / 105 40% 2 29.11.2026 -
Benjamín Ilama Uruguay Montevideo Ativo 103 / 105 40% 1 29.11.2026 -
Leonel Pollacchi San Telmo Ativo 107 / 114 40% 1 28.11.2026 -
Jonathan Bilbao Carabobo Ativo 100 / 98 40% 1 27.11.2026 -
Briam Acosta Albion Ativo 103 / 92 40% 2 26.11.2026 -
Diego Núñez Colon Ativo 90 / 97 40% 1 26.11.2026 -
Juan Perdomo Deportivo La Guaira Ativo 108 / 111 40% 1 26.11.2026 -
Álex Perdomo Defensor Sporting Ativo 89 / 108 40% 2 23.11.2026 -
Nahuel Gómez Oriental Ativo 98 / 85 40% 2 23.11.2026 -
Tomás Rojas Atlanta Ativo 126 / 120 40% 1 23.11.2026 -
Federico Ulayar Talleres Ativo 84 / 108 40% 1 23.11.2026 -
Ariath Piol Real Salt Lake Ativo 93 / 104 40% 1 22.11.2026 -
Franco Suárez Racing Ativo 99 / 100 40% 1 22.11.2026 -
Camilo Alessandria Godoy Cruz Ativo 124 / 104 40% 1 21.11.2026 -
Jesús Mendieta Alianza Atletico Ativo 111 / 102 40% 1 21.11.2026 -
Santiago Sala Güemes Ativo 99 / 103 40% 2 20.11.2026 -
Kleyder Barreto Zamora Ativo 86 / 104 40% 1 20.11.2026 -
Brayan Morales Trujillanos Ativo 105 / 93 40% 1 16.11.2026 -
Javier Saldías Union La Calera Ativo 77 / 91 40% 1 16.11.2026 -
Juan Díaz Universidad Catolica Ativo 111 / 108 40% 3 15.11.2026 -
Luis Olivera Defensores Unidos Ativo 105 / 116 40% 1 15.11.2026 -
Yacouba Meïté Plaza Colonia Ativo 99 / 92 40% 1 14.11.2026 -
Matías González Penarol Ativo 112 / 108 40% 2 12.11.2026 -
Santiago Laquidain Liverpool Montevideo Ativo 110 / 105 40% 1 11.11.2026 -
Francisco Facello Chacarita Juniors Ativo 124 / 123 40% 1 11.11.2026 -
Jeremías Silveira Fenix Ativo 76 / 97 40% 1 10.11.2026 -
Robert Mendoza Portuguesa Ativo 66 / 70 40% 1 10.11.2026 -
Nicolás Fernandez Universidad de Chile Ativo 125 / 99 40% 1 10.11.2026 -
Adrián Montañez Deportivo Tachira Ativo 95 / 105 40% 2 09.11.2026 -
Fernando Savarino Llaneros Ativo 122 / 102 40% 1 07.11.2026 -
Álvaro San Emeterio Tacuarembo Ativo 115 / 101 40% 1 07.11.2026 -
Lucas Pedraza Defensores Unidos Ativo 95 / 97 40% 2 05.11.2026 -
Jerónimo Porto Lapegüe San Telmo Ativo 93 / 107 40% 1 05.11.2026 -
Matías Núñez Atenas Ativo 95 / 95 40% 1 04.11.2026 -
Luciano Minhondo Uruguay Montevideo Ativo 93 / 86 40% 1 31.10.2026 -
Ezequiel Almirón Estudiantes Ativo 113 / 116 40% 1 31.10.2026 -
Walter Domínguez Deportivo Maldonado Ativo 90 / 99 40% 1 31.10.2026 -
Julio López Defensores Unidos Ativo 112 / 112 40% 1 29.10.2026 -
Sebastián Tormo Deportivo Maldonado Ativo 98 / 103 40% 1 27.10.2026 -
Franco Godoy Aldosivi Ativo 94 / 104 40% 1 27.10.2026 -
Jonathan Villagra Colo-Colo Ativo 117 / 98 40% 2 26.10.2026 -
Yuri Casermeiro Central Córdoba SdE Ativo 105 / 118 40% 1 26.10.2026 -
Carlos Calzadilla Deportivo Tachira Ativo 85 / 94 40% 1 24.10.2026 -
Agustín Pérez Juventud Ativo 75 / 90 40% 1 24.10.2026 -
Vicente Concha Iquique Ativo 95 / 87 40% 1 23.10.2026 -
Valentín Serrano Arsenal Ativo 91 / 105 40% 1 21.10.2026 -
Diego Ulloa Colo-Colo Ativo 109 / 90 40% 1 20.10.2026 -
Luciano Batista Cerrito Ativo 84 / 101 40% 1 19.10.2026 -
Favio Cabral Mitre Ativo 106 / 111 40% 1 19.10.2026 -
Brian Calderara Chacarita Juniors Ativo 119 / 111 40% 3 18.10.2026 -
Nicolás Palma Union La Calera Ativo 85 / 93 40% 1 18.10.2026 -
Facundo Perdomo Liverpool Montevideo Ativo 91 / 96 40% 1 17.10.2026 -
Facundo López Morón Ativo 110 / 94 40% 1 17.10.2026 -
Facundo Silvera Montevideo City Torque Ativo 94 / 116 40% 1 15.10.2026 -
Carlos Espínola Nacional Ativo 113 / 98 40% 1 15.10.2026 -
Francisco Manenti Metropolitanos Ativo 91 / 108 40% 1 13.10.2026 -
Christopher Montaña Portuguesa Ativo 88 / 107 40% 1 12.10.2026 -
Cristóbal Guerra San Marcos de Arica Ativo 106 / 100 40% 2 11.10.2026 -
Augusto Gallo Fenix Ativo 91 / 104 40% 1 10.10.2026 -
Gino Olguín Ferro Carril Oeste Ativo 100 / 119 40% 2 09.10.2026 -
Siro Rosané Estudiantes Ativo 117 / 119 40% 1 09.10.2026 -
Fernando Bersano Madryn Ativo 107 / 108 40% 1 08.10.2026 -
Damián Adín San Miguel Ativo 119 / 112 40% 1 06.10.2026 -
Emiliano Aires Rampla Juniors Ativo 97 / 97 40% 1 05.10.2026 -
Emiliano Ancheta Nacional Ativo 134 / 127 40% 3 04.10.2026 -
Gabriel Díaz Patronato Ativo 119 / 114 40% 1 04.10.2026 -
Tomás González Unión de Santa Fe Ativo 105 / 126 40% 1 01.10.2026 -
José Barreto Quilmes Ativo 116 / 109 40% 1 01.10.2026 -
Agustín Pereira Albion Ativo 101 / 117 40% 1 29.09.2026 -
Rubén Del Campo Morelia Ativo 88 / 108 40% 1 29.09.2026 -
Elias Manoel Tijuana Ativo 117 / 96 40% 1 28.09.2026 -
Luciano Arriagada Huachipato Ativo 95 / 100 40% 1 26.09.2026 -
Lucas Arzamendia Atenas Ativo 107 / 90 40% 2 25.09.2026 -
Gonzalo Mottes Chacarita Juniors Ativo 101 / 121 40% 1 22.09.2026 -
Facundo Silvestre Uruguay Montevideo Ativo 113 / 92 40% 1 21.09.2026 -
Rafael Haller Liverpool Montevideo Ativo 109 / 116 40% 1 18.09.2026 -
Dylan Lozano Aguilas Doradas Ativo 119 / 118 40% 1 16.09.2026 -
Daniel Rivera Junior Ativo 116 / 104 40% 1 16.09.2026 -
Marcio Gómez Racing Ativo 115 / 119 40% 1 15.09.2026 -
Guillermo Larios Alianza Atletico Ativo 110 / 95 40% 1 14.09.2026 -
Hassan Vergara Deportivo Pasto Ativo 102 / 106 40% 1 14.09.2026 -
Enzo Cabrera Danubio Ativo 95 / 121 40% 1 13.09.2026 -
Agustín Bianciotti Metropolitanos Ativo 101 / 96 40% 1 13.09.2026 -
Facundo Briñón Atenas Ativo 108 / 99 40% 1 12.09.2026 -
Freyn Macleyn Patriotas Ativo 108 / 101 40% 1 12.09.2026 -
Ronny Maza Aragua Ativo 113 / 101 40% 2 10.09.2026 -
Andrés Olivera Colon Ativo 90 / 112 40% 1 10.09.2026 -
Jairo Amaro Cerro Ativo 95 / 105 40% 1 10.09.2026 -
Luca Franco Arsenal Ativo 111 / 113 40% 1 10.09.2026 -
Jefferson Montero Universitario Popayan Ativo 85 / 94 40% 1 07.09.2026 -
Sergio Carrasco Cobresal Ativo 89 / 88 40% 1 07.09.2026 -
Mauricio Isais Pachuca Ativo 122 / 126 40% 3 05.09.2026 -
Germán Peralta La Luz Ativo 117 / 114 40% 1 05.09.2026 -
Bruno Hernández Cerro Largo Ativo 80 / 94 40% 1 05.09.2026 -
Ronald Álvarez Colon Ativo 103 / 92 40% 1 03.09.2026 -
Bruno Motta Oriental Ativo 82 / 76 40% 1 03.09.2026 -
Orles Aragón Tigres Ativo 81 / 103 40% 1 02.09.2026 -
Jorge Berlanga Pachuca Ativo 94 / 133 40% 2 01.09.2026 -
Simón Contreras Iquique Ativo 83 / 98 40% 1 28.08.2026 -
José Ferrer Estudiantes de Caracas Ativo 101 / 86 40% 1 27.08.2026 -
Camilo Machado Madryn Ativo 98 / 110 40% 1 25.08.2026 -
Marcus Vinicius Deportivo Pereira Ativo 107 / 110 40% 1 25.08.2026 -
Mauro Martín Progreso Ativo 100 / 106 40% 1 25.08.2026 -
Ismael Tejería Rampla Juniors Ativo 95 / 101 40% 1 25.08.2026 -
Nicolás Brun Montevideo City Torque Ativo 93 / 89 40% 1 22.08.2026 -
Alexander Rondón Maneiro Deportivo Tachira Ativo 71 / 69 40% 1 22.08.2026 -
Eyder Restrepo Llaneros Ativo 92 / 94 40% 2 19.08.2026 -
Williams Guzmán Alianza Atletico Ativo 95 / 90 40% 1 19.08.2026 -
Jonathan Baeza La Luz Ativo 77 / 89 40% 1 18.08.2026 -
Facundo Barreto Colon Ativo 82 / 83 40% 1 18.08.2026 -
Michael Maldonado Estudiantes de Merida Ativo 107 / 90 40% 1 15.08.2026 -
Camilo Martinez Cortulua Ativo 122 / 135 40% 1 15.08.2026 -
Diego Barbosa Toluca Ativo 116 / 121 40% 1 13.08.2026 -
Fabricio Silveira Montevideo City Torque Ativo 93 / 94 40% 1 12.08.2026 -
Ernesto Aramburu Central Espanol Ativo 106 / 94 40% 1 11.08.2026 -
Agustín da Silveira Sportivo Trinidense Ativo 95 / 91 40% 1 09.08.2026 -
Efraín Navarro Once Caldas Ativo 123 / 117 40% 1 09.08.2026 -
Jesús Cano Tigres Ativo 83 / 107 40% 1 08.08.2026 -
Gabriel Chocobar Oriental Ativo 88 / 88 40% 2 07.08.2026 -
Santiago Otegui Plaza Colonia Ativo 107 / 85 40% 1 05.08.2026 -
Tomás Moschion Albion Ativo 95 / 111 40% 1 05.08.2026 -
Carlos Adrián Sánchez Pachuca Ativo 90 / 124 40% 1 03.08.2026 -
Omar Bertel America de Cali Ativo 131 / 105 40% 1 01.08.2026 -